This is the latest recevied weather packets stored in our database for station/object KQ4JKJ. If no packets are shown the sender has not sent any weather packets the latest 10 day(s).
| Time | Temp. | Humidity | Pressure | Rain* | Wind** | Luminosity | Snow |
|---|---|---|---|---|---|---|---|
| 1777678821 | 26.67° C | 83% | 1003.8 hPa | 0 mm | - | 13 W/m² | - |
| 1777678518 | 26.67° C | 83% | 1003.8 hPa | 0 mm | - | 16 W/m² | - |
| 1777678215 | 26.67° C | 83% | 1003.8 hPa | 0 mm | - | 17 W/m² | - |
| 1777677911 | 26.67° C | 83% | 1003.8 hPa | 0 mm | - | 20 W/m² | - |
| 1777677609 | 26.67° C | 83% | 1003.8 hPa | 0 mm | - | 23 W/m² | - |
| 1777677306 | 26.67° C | 83% | 1003.7 hPa | 0 mm | - | 24 W/m² | - |
| 1777677005 | 26.67° C | 82% | 1003.8 hPa | 0 mm | - | 31 W/m² | - |
| 1777676703 | 27.22° C | 82% | 1003.7 hPa | 0 mm | - | 36 W/m² | - |
| 1777676400 | 27.22° C | 81% | 1003.5 hPa | 0 mm | - | 40 W/m² | - |
| 1777676098 | 27.22° C | 81% | 1003.5 hPa | 0 mm | - | 44 W/m² | - |
| 1777675793 | 27.22° C | 80% | 1003.5 hPa | 0 mm | - | 48 W/m² | - |
| 1777675491 | 27.78° C | 79% | 1003.5 hPa | 0 mm | - | 59 W/m² | - |
| 1777675188 | 27.78° C | 79% | 1003.4 hPa | 0 mm | - | 85 W/m² | - |
| 1777674884 | 27.78° C | 78% | 1003.3 hPa | 0 mm | - | 102 W/m² | - |
| 1777674580 | 27.78° C | 78% | 1003.5 hPa | 0 mm | - | 90 W/m² | - |
| 1777674279 | 27.78° C | 79% | 1003.5 hPa | 0 mm | - | 81 W/m² | - |
| 1777673974 | 27.78° C | 78% | 1003.4 hPa | 0 mm | - | 88 W/m² | - |
| 1777673671 | 27.78° C | 77% | 1003.5 hPa | 0 mm | - | 118 W/m² | - |
| 1777673368 | 27.78° C | 77% | 1003.3 hPa | 0 mm | - | 128 W/m² | - |
| 1777673066 | 27.78° C | 76% | 1003.3 hPa | 0 mm | - | 146 W/m² | - |
| 1777672761 | 28.33° C | 77% | 1003.1 hPa | 0 mm | - | 162 W/m² | - |
| 1777672459 | 27.78° C | 78% | 1003.2 hPa | 0 mm | - | 141 W/m² | - |
| 1777672154 | 27.78° C | 77% | 1003.3 hPa | 0 mm | - | 136 W/m² | - |
| 1777671849 | 27.78° C | 76% | 1003.3 hPa | 0 mm | - | 136 W/m² | - |
| 1777671545 | 27.78° C | 76% | 1003.3 hPa | 0 mm | - | 153 W/m² | - |
* Rain latest hour (hover to see other rain measurements)
** Current wind speed in m/s (hover to see current wind gust speed)